Location: Praha
(50.0830°N, 14.4670°E)
Time: 01:21:01
(UTC+01:00)

ISS - Pass Details

Date: 25 November 2020
Orbit: 418 x 420 km, 51.6° (Epoch: 05 December)

Event Time Altitude Azimuth Distance (km) Brightness Sun altitude
Rises 17:20:16 0° 234° (SW) 2,355 1.7 -11.4°
Reaches altitude 10° 17:22:24 10° 229° (SW) 1,493 0.2 -11.7°
Maximum altitude 17:25:39 49° 153° (SSE) 551 -3.3 -12.2°
Enters shadow 17:27:34 21° 87° (E) 991 -2.5 -12.5°
